Hourly Weather Ngozi

Today, 15 August, Saturday

Time Temperature Precipitation Wind Pressure Humidity
00:00 +19°C° 0 mm 0 mps 618 mmHg 43%
01:00 +18°C° 0 mm 0 mps 617 mmHg 46%
02:00 +16°C° 0 mm 0 mps 616 mmHg 51%
03:00 +16°C° 0 mm 0 mps 616 mmHg 52%
04:00 +16°C° 0 mm 0 mps 617 mmHg 53%
05:00 +15°C° 0 mm 0 mps 617 mmHg 54%
06:00 +18°C° 0 mm 0 mps 618 mmHg 49%
07:00 +20°C° 0 mm 0 mps 619 mmHg 44%
08:00 +22°C° 0 mm 0 mps 620 mmHg 39%
09:00 +26°C° 0 mm 1 mps 620 mmHg 36%
10:00 +28°C° 0 mm 1 mps 621 mmHg 32%
11:00 +30°C° 0 mm 2 mps 621 mmHg 28%
12:00 +30°C° 0 mm 2 mps 621 mmHg 28%
13:00 +30°C° 0 mm 2 mps 620 mmHg 27%
14:00 +30°C° 0 mm 2 mps 619 mmHg 27%
15:00 +29°C° 0 mm 2 mps 618 mmHg 28%
16:00 +29°C° 0 mm 1 mps 618 mmHg 30%
17:00 +28°C° 0 mm 1 mps 618 mmHg 32%
18:00 +26°C° 0 mm 1 mps 618 mmHg 37%
19:00 +24°C° 0 mm 1 mps 618 mmHg 41%
20:00 +23°C° 0 mm 1 mps 617 mmHg 46%
21:00 +21°C° 0 mm 1 mps 617 mmHg 49%
22:00 +18°C° 0 mm 0 mps 617 mmHg 53%
23:00 +17°C° 0 mm 0 mps 617 mmHg 56%

Tomorrow, 16 August, Sunday

Time Temperature Precipitation Wind Pressure Humidity
00:00 +17°C° 0 mm 0 mps 617 mmHg 57%
01:00 +16°C° 0 mm 0 mps 616 mmHg 58%
02:00 +18°C° 0 mm 1 mps 616 mmHg 60%
03:00 +16°C° 0 mm 0 mps 616 mmHg 60%
04:00 +15°C° 0 mm 0 mps 616 mmHg 61%
05:00 +15°C° 0 mm 0 mps 616 mmHg 61%
06:00 +18°C° 0 mm 0 mps 617 mmHg 54%
07:00 +20°C° 0 mm 0 mps 619 mmHg 47%
08:00 +24°C° 0 mm 1 mps 620 mmHg 40%
09:00 +26°C° 0 mm 1 mps 620 mmHg 35%
10:00 +27°C° 0 mm 2 mps 621 mmHg 31%
11:00 +29°C° 0 mm 3 mps 621 mmHg 26%
12:00 +30°C° 0 mm 3 mps 620 mmHg 25%
13:00 +30°C° 0 mm 3 mps 620 mmHg 24%
14:00 +31°C° 0 mm 3 mps 619 mmHg 23%
15:00 +30°C° 0 mm 3 mps 619 mmHg 24%
16:00 +29°C° 0 mm 3 mps 618 mmHg 25%
17:00 +28°C° 0 mm 3 mps 618 mmHg 26%
18:00 +26°C° 0 mm 3 mps 618 mmHg 32%
19:00 +23°C° 0 mm 2 mps 617 mmHg 38%
20:00 +21°C° 0 mm 1 mps 617 mmHg 44%
21:00 +20°C° 0 mm 1 mps 617 mmHg 46%
22:00 +19°C° 0 mm 1 mps 617 mmHg 49%
23:00 +19°C° 0 mm 1 mps 617 mmHg 51%

Day after tomorrow, 17 August, Monday

Time Temperature Precipitation Wind Pressure Humidity
00:00 +18°C° 0 mm 1 mps 616 mmHg 52%
01:00 +18°C° 0 mm 1 mps 616 mmHg 53%
02:00 +16°C° 0 mm 1 mps 616 mmHg 54%
03:00 +16°C° 0 mm 1 mps 616 mmHg 54%
04:00 +16°C° 0 mm 1 mps 616 mmHg 54%
05:00 +16°C° 0 mm 1 mps 616 mmHg 54%
06:00 +19°C° 0 mm 1 mps 617 mmHg 49%
07:00 +20°C° 0 mm 2 mps 618 mmHg 44%
08:00 +21°C° 0 mm 2 mps 619 mmHg 39%
09:00 +24°C° 0 mm 2 mps 620 mmHg 35%
10:00 +26°C° 0 mm 2 mps 620 mmHg 31%
11:00 +28°C° 0 mm 3 mps 621 mmHg 27%
12:00 +29°C° 0 mm 3 mps 620 mmHg 25%
13:00 +30°C° 0 mm 3 mps 620 mmHg 23%
14:00 +31°C° 0 mm 3 mps 619 mmHg 21%
15:00 +30°C° 0 mm 3 mps 619 mmHg 22%
16:00 +30°C° 0 mm 3 mps 618 mmHg 23%
17:00 +29°C° 0 mm 3 mps 618 mmHg 23%
18:00 +26°C° 0 mm 2 mps 618 mmHg 29%
19:00 +23°C° 0 mm 2 mps 617 mmHg 35%
20:00 +20°C° 0 mm 1 mps 617 mmHg 42%
21:00 +20°C° 0 mm 1 mps 617 mmHg 44%
22:00 +19°C° 0 mm 1 mps 617 mmHg 47%
23:00 +18°C° 0 mm 1 mps 617 mmHg 49%

18 August, Tuesday

Time Temperature Precipitation Wind Pressure Humidity
00:00 +18°C° 0 mm 1 mps 617 mmHg 50%
01:00 +18°C° 0 mm 1 mps 616 mmHg 50%
02:00 +16°C° 0 mm 1 mps 616 mmHg 50%
03:00 +16°C° 0 mm 1 mps 616 mmHg 51%
04:00 +16°C° 0 mm 1 mps 616 mmHg 51%
05:00 +15°C° 0 mm 1 mps 616 mmHg 52%
06:00 +18°C° 0 mm 1 mps 617 mmHg 47%
07:00 +20°C° 0 mm 1 mps 618 mmHg 42%
08:00 +22°C° 0 mm 1 mps 620 mmHg 37%
09:00 +24°C° 0 mm 1 mps 620 mmHg 33%
10:00 +26°C° 0 mm 2 mps 620 mmHg 30%
11:00 +28°C° 0 mm 2 mps 621 mmHg 26%
12:00 +29°C° 0 mm 2 mps 620 mmHg 24%
13:00 +30°C° 0 mm 3 mps 620 mmHg 22%
14:00 +31°C° 0 mm 3 mps 619 mmHg 21%
15:00 +30°C° 0 mm 3 mps 619 mmHg 22%
16:00 +29°C° 0 mm 3 mps 618 mmHg 23%
17:00 +28°C° 0 mm 2 mps 617 mmHg 24%
18:00 +26°C° 0 mm 2 mps 617 mmHg 29%
19:00 +23°C° 0 mm 2 mps 617 mmHg 35%
20:00 +21°C° 0 mm 1 mps 616 mmHg 41%
21:00 +20°C° 0 mm 1 mps 616 mmHg 43%
22:00 +19°C° 0 mm 1 mps 616 mmHg 44%
23:00 +19°C° 0 mm 1 mps 617 mmHg 46%

19 August, Wednesday

Time Temperature Precipitation Wind Pressure Humidity
00:00 +18°C° 0 mm 1 mps 616 mmHg 48%
01:00 +18°C° 0 mm 1 mps 616 mmHg 50%
02:00 +15°C° 0 mm 0 mps 615 mmHg 52%
03:00 +15°C° 0 mm 0 mps 615 mmHg 54%
04:00 +14°C° 0 mm 0 mps 615 mmHg 55%
05:00 +14°C° 0 mm 0 mps 615 mmHg 57%
06:00 +16°C° 0 mm 0 mps 617 mmHg 50%
07:00 +20°C° 0 mm 1 mps 618 mmHg 44%
08:00 +23°C° 0 mm 1 mps 619 mmHg 37%
09:00 +25°C° 0 mm 1 mps 620 mmHg 32%
10:00 +27°C° 0 mm 2 mps 621 mmHg 28%
11:00 +30°C° 0 mm 2 mps 621 mmHg 23%
12:00 +30°C° 0 mm 2 mps 620 mmHg 22%
13:00 +31°C° 0 mm 3 mps 620 mmHg 21%
14:00 +31°C° 0 mm 3 mps 619 mmHg 20%
15:00 +30°C° 0 mm 3 mps 618 mmHg 21%
16:00 +29°C° 0 mm 3 mps 618 mmHg 23%
17:00 +29°C° 0 mm 2 mps 617 mmHg 24%
18:00 +26°C° 0 mm 2 mps 617 mmHg 29%
19:00 +23°C° 0 mm 2 mps 616 mmHg 34%
20:00 +20°C° 0 mm 1 mps 616 mmHg 40%
21:00 +19°C° 0 mm 1 mps 616 mmHg 42%
22:00 +18°C° 0 mm 1 mps 616 mmHg 45%
23:00 +18°C° 0 mm 1 mps 616 mmHg 47%

20 August, Thursday

Time Temperature Precipitation Wind Pressure Humidity
00:00 +16°C° 0 mm 1 mps 616 mmHg 48%
01:00 +15°C° 0 mm 0 mps 615 mmHg 48%
02:00 +15°C° 0 mm 0 mps 615 mmHg 49%
03:00 +15°C° 0 mm 0 mps 615 mmHg 49%
04:00 +15°C° 0 mm 0 mps 615 mmHg 49%
05:00 +16°C° 0 mm 0 mps 616 mmHg 49%
06:00 +19°C° 0 mm 1 mps 617 mmHg 44%
07:00 +21°C° 0 mm 1 mps 618 mmHg 40%
08:00 +23°C° 0 mm 2 mps 619 mmHg 36%
09:00 +25°C° 0 mm 2 mps 620 mmHg 32%
10:00 +27°C° 0 mm 2 mps 620 mmHg 28%
11:00 +29°C° 0 mm 3 mps 621 mmHg 24%
12:00 +30°C° 0 mm 3 mps 620 mmHg 23%
13:00 +31°C° 0 mm 3 mps 620 mmHg 22%
14:00 +31°C° 0 mm 3 mps 619 mmHg 22%
15:00 +30°C° 0 mm 3 mps 619 mmHg 23%
16:00 +30°C° 0 mm 3 mps 618 mmHg 24%
17:00 +29°C° 0 mm 2 mps 618 mmHg 25%
18:00 +26°C° 0 mm 2 mps 617 mmHg 30%
19:00 +24°C° 0 mm 1 mps 617 mmHg 35%
20:00 +21°C° 0 mm 1 mps 617 mmHg 40%
21:00 +21°C° 0 mm 1 mps 617 mmHg 41%
22:00 +19°C° 0 mm 0 mps 617 mmHg 41%
23:00 +19°C° 0 mm 0 mps 617 mmHg 41%
Show more